Regional Weather Roundup
Issued by NWS

Home | Current Version | Previous Version | Text Only | Print | Product List | Glossary Off
Versions: 1 2 3 4 5 6 7 8 9 10 11 12 13 14 15 16 17 18 19 20 21 22 23 24 25 26 27 28 29 30 31 32 33 34 35 36 37 38 39 40 41 42 43 44 45 46 47 48 49 50

000
ASUS45 KABQ 302310
RWRNM
NEW MEXICO REGIONAL WEATHER ROUNDUP
NATIONAL WEATHER SERVICE ALBUQUERQUE NM
500 PM MDT TUE AUG 30 2016

NOTE: "FAIR" MEANS FEW OR NO CLOUDS BELOW 12,000 FEET AGL WITH NO
       SIGNIFICANT WEATHER OR OBSTRUCTIONS TO VISION.

      THIS PRODUCT IS RELEASED AS TWO VERSIONS.  ONE VERSION NEAR
      THE TOP OF THE HOUR CONTAINING PRELIMINARY DATA FROM ALBUQUERQUE
      AND OTHER STATIONS.  A FINAL VERSION WITH ADDITIONAL DATA IS
      ISSUED ABOUT 10 MINUTES AFTER THE HOUR.

NMZ501-503-504-510>518-310000-
NORTHWEST PLATEAU/NORTHCENTRAL MOUNTAINS

CITY           SKY/WX    TMP DP  RH WIND       PRES   REMARKS
FARMINGTON     FAIR      82  37  20 S7        30.18F
SANTA FE       FAIR      74  50  42 SE17      30.29S
TAOS           FAIR      73  45  35 SE13      30.33S
ANGEL FIRE     FAIR      62  46  56 SE12      30.45S

$$
NMZ402-403-502-505>509-310000-
WESTCENTRAL MOUNTAINS/SOUTHWEST MOUNTAINS

CITY           SKY/WX    TMP DP  RH WIND       PRES   REMARKS
GALLUP         FAIR      77  41  27 E7        30.27F
GRANTS         FAIR      77  43  30 SE8       30.29F
SILVER CITY    FAIR      81  49  33 E12G22    30.17F

$$
NMZ407-409-411-412-310000-
SOUTHERN DESERTS

CITY           SKY/WX    TMP DP  RH WIND       PRES   REMARKS
DEMING         PTSUNNY   83  54  36 E13       30.10F
LAS CRUCES     FAIR      82  52  36 SE7       30.15F
HOLLOMAN AFB   FAIR      80  56  43 S7        30.11F
ALAMOGORDO     FAIR      79  55  44 CALM      30.14S
T OR C         FAIR      81  51  35 SE10      30.14S

$$
NMZ519>523-310000-
CENTRAL VALLEYS/CENTRAL HIGHLANDS

CITY           SKY/WX    TMP DP  RH WIND       PRES   REMARKS
ALBUQUERQUE    FAIR      79  49  34 SE6       30.21F
DOUBLE EAGLE   PTSUNNY   81  50  34 E9        30.25F
MORIARTY ARPT  FAIR      73  52  47 E15       30.31S
CLINES CORNERS PTSUNNY   64  54  69 SE17      30.37F
BELEN          CLOUDY    81  45  28 CALM      30.19F
SOCORRO        FAIR      83  46  27 E9        30.17S

$$
NMZ524>526-539-540-310000-
SOUTHCENTRAL MOUNTAINS

CITY           SKY/WX    TMP DP  RH WIND       PRES   REMARKS
RUIDOSO          N/A     59  55  88 SE8       30.36F

$$
NMZ527>531-310000-
NORTHEAST HIGHLANDS/NORTHEAST PLAINS

CITY           SKY/WX    TMP DP  RH WIND       PRES   REMARKS
LAS VEGAS      FAIR      66  52  60 E14       30.36S
RATON          CLOUDY    67  51  56 E5        30.33S
CLAYTON        FAIR      70  59  68 SE9       30.28F

$$
NMZ532>537-310000-
EASTCENTRAL PLAINS

CITY           SKY/WX    TMP DP  RH WIND       PRES   REMARKS
TUCUMCARI      LGT RAIN  68  66  93 S5        30.23F
CANNON AFB     CLOUDY    69  66  89 NE13      30.23F
CLOVIS AIRPORT PTSUNNY   70  63  78 NE12      30.23F

$$
NMZ028-029-538-310000-
SOUTHEAST PLAINS

CITY           SKY/WX    TMP DP  RH WIND       PRES   REMARKS
ROSWELL        PTSUNNY   74  60  61 NW6       30.17F
ARTESIA        FAIR      73  68  83 N5        30.17S
CARLSBAD       FAIR      73  66  78 E5        30.14S
HOBBS          PTSUNNY   70  68  94 VRB7      30.16F


$$




USA.gov is the U.S. government's official web portal to all federal, state and local government web resources and services.